星链-6034 (STARLINK-6034 )

导读

STARLINK-6034是美国于2023年4月27日发射的星链系列低轨互联网通信卫星,隶属于SpaceX公司的星链星座组网计划,主要用于为全球提供高速互联网服务,尤其覆盖偏远地区和传统网络难以触达的区域,截至2026年,该卫星已在轨正常运行近3年,承担着星座网络的通信服务节点任务。

Basic Information
目录编号:
56324
目录名称:
STARLINK-6034
国际标识:
2023-058H
轨道中心:
EARTH
卫星名称:
星链-6034
卫星全名:
星链-6034 (STARLINK-6034 )
卫星状态:
在轨 (已飞行1145 天)
发射日期:
2023-04-27 UTC
国别 :
美国 (US)
星等 :
--
Orbit Information
数据来源 国际轨道数据 AOE轨道数据
星历时间 2026-06-15T01:33:54+0800
6小时前
查看轨道信息
2026-06-12T06:00:00+0800
3天前
查看轨道信息
半长轴 6927.624km 6927.621km
偏心率 0.0001544 0.0001688
轨道倾角 97.360° 97.368°
近地点辐角 125.512° 118.701°
升交点赤经 166.043° 163.354°
平近点角 234.625° 111.644°
近地点 548.417km 548.314km
远地点 550.557km 550.654km
周期 95.639分钟 95.639分钟
每日圈数 15.05658 15.05659
Detailed Information
固有亮度:
5
最大亮度:
2.5
卫星平台:
Starlink v1.5
覆盖范围:
全球
运营商:
太空探索技术公司
运营商所在国:
美国
制造商(研发单位):
太空探索技术公司
制造商所在国:
美国
使用方式:
暂无
Satellite Introduction
星链(Starlink)计划是由太空探索技术公司(SpaceX)提出的一个巨型低轨卫星互联网星座项目,计划在2019年至2024年间在太空搭建由约1.2万颗卫星组成的“星链”网络,其中1584颗将部署在地球上空550千米处的近地轨道,并从2020年开始工作。该卫星仍在工作。
2D Orbit Map
3D Orbit Map
Orbit Altitude Analysis Chart
Orbit Inclination Analysis Chart
Orbit Comprehensive Analysis Chart
View Comprehensive Chart